Погода в Гридинской

Россия / Архангельская область     62°28′11″N   43°56′18″E
темп.,
°C
ветер,
м/с
пор.,
м/с
влажн.,
%
обл.,
%
осадки,
мм/ч
давл.,
гПа
погр.,
м
9 мая, вс
вс900:00+9вюв31076100 0.1 1011323
03:00+8в3775100 0.2 1009255
06:00+10вюв41268100 0.1 1006550
09:00+8юв51291100 2.9 1005713
12:00+9ю2894100 0.8 1006625
15:00+8зюз2695100 3.4 1008332
18:00+6зсз4892100 2.6 1011558
21:00+5сз3992100 2.6 1013724
10 мая, пн
пн1000:00+4зсз3889100 0.0 1015511
03:00+3зсз2894100 0.0 1019297
06:00+4зсз26832 0.0 1022261
09:00+9зсз24553 0.0 10241052
12:00+13з23335 0.0 10251932
15:00+14зюз233070 0.0 10252210
18:00+13ююз243651 0.0 10251747
21:00+8ю2760100 0.0 1026120
11 мая, вт
вт1100:00+8ююз3115996 0.0 1026327
03:00+9ююз41259100 0.0 1025576
06:00+8ююз31071100 0.2 1026448
09:00+12ююз4106095 0.2 1025539
12:00+14юз41166100 0.0 1026714
15:00+17зюз396084 0.0 10261245
18:00+17юз226671 0.0 102628
21:00+14ююз2584100 0.0 102689
12 мая, ср
ср1200:00+12юз210917 0.0 1027182
03:00+10юз249524 0.0 102881
06:00+13юз277926 0.0 1029211
09:00+19зюз365569 0.0 1028668
12:00+23зюз45408 0.0 10281422
15:00+25зюз35355 0.0 10271835
18:00+24зюз24420 0.0 1027225
21:00+17ююз11662 0.0 102711
13 мая, чт
чт1300:00+14ю11740 0.0 102810
03:00+13ююв11800 0.0 102810
06:00+16ююв12700 0.0 1028144
09:00+22ю23495 0.0 1027699
12:00+25ю34370 0.0 10261885
15:00+26ююз35275 0.0 10242344
18:00+24ю2541100 0.0 1023386
21:00+17ююз226512 0.0 102332